Terminal Aerodrome Forecast
Issued by NWS Charleston, WV

Current Version | Previous Version | Graphics & Text | Print | Product List | Glossary On
Versions: 1 2 3 4 5 6 7 8 9 10 11 12 13 14 15 16 17 18 19 20 21 22 23 24 25 26 27
000
FTUS41 KRLX 032357
TAFHTS
TAF
KHTS 032357Z 0400/0424 VRB02KT 4SM SHRA BR VCTS BKN008 OVC015CB
     FM040300 00000KT 4SM BR OVC007
     FM040700 00000KT 1SM BR OVC003
     FM041200 00000KT 3SM BR OVC006
     FM041400 32003KT P6SM OVC012
     FM041800 30004KT P6SM BKN035=

USA.gov is the U.S. government's official web portal to all federal, state and local government web resources and services.